Powrót do katalogu

STARLINK-36992

AktywnyŁącznośćSSO
NORAD 68149·PAYLOAD·🇺🇸 United States

Wystrzelony Mar 13, 2026 z Vandenberg Space Force Base

Loading…

Następne Przeloty (najbliższe 24 godziny)

TLE

ŚwieżeSource: CelesTrak SupGP

Epoka: Sep 15, 2026, 04:07 UTC

1 68149C 26049H   26258.17201389 -.00069309  00000+0 -21519-2 0  2589
2 68149  97.2838 278.2628 0001407  88.6558  78.5115 15.33468637    18

Śledź STARLINK-36992 w czasie rzeczywistym z AllMySat

Download on the App Store